Location: Kikino
(54.4440°N, 112.0940°W)
Time: 17:47:54
(UTC+00:00)

A-11 Canister half - Pass Details

Date: 22 May 2024
Orbit: 1525 x 1683 km, 47.3° (Epoch: 12 June)

Event Time Altitude Azimuth Distance (km) Brightness Sun altitude
Rises 11:10:56 0° 284° (WNW) 4,799 11.2 -0.9°
Reaches altitude 10° 11:14:37 10° 273° (W) 3,836 10.7 -0.5°
Maximum altitude 11:22:14 27° 221° (SW) 2,778 9.9 0.4°
Drops below altitude 10° 11:30:01 10° 169° (S) 3,913 10.9 1.3°
Sets 11:33:50 0° 158° (SSE) 4,912 11.5 1.8°
